Regional Weather Roundup
Issued by NWS

Home | Current Version | Previous Version | Text Only | Print | Product List | Glossary Off
Versions: 1 2 3 4 5 6 7 8 9 10 11 12 13 14 15 16 17 18 19 20 21 22 23 24 25 26 27 28 29 30 31 32 33 34 35 36 37 38 39 40 41 42 43 44 45 46 47 48 49 50

000
ASUS45 KCYS 221810
RWRWY

WYOMING REGIONAL WEATHER ROUNDUP
NATIONAL WEATHER SERVICE CHEYENNE WY
1200 PM MDT MON SEP 22 2014

NOTE:  "FAIR" INDICATES FEW OR NO CLOUDS BELOW 12,000 FEET
WITH NO SIGNIFICANT WEATHER AND/OR OBSTRUCTIONS TO VISIBILITY.

WYZ001-221900-
YELLOWSTONE NATIONAL PARK

CITY           SKY/WX    TMP DP  RH WIND       PRES   REMARKS
LK YELLOWSTONE   N/A     52  46  80 VRB3      30.28S
6HR MIN TEMP:  45; 6HR MAX TEMP:  54;

W YELLOWSTONE  NOT AVBL

$$
WYZ002>013-054>058-071-098>099-221900-
NORTHERN WYOMING

CITY           SKY/WX    TMP DP  RH WIND       PRES   REMARKS
JACKSON        CLOUDY    54  54 100 S5        30.23F
CODY           MOSUNNY   72  43  35 W14G25    30.05S
GREYBULL       PTSUNNY   76  46  34 S5        29.99F
6HR MIN TEMP:  57; 6HR MAX TEMP:  77;

WORLAND        CLOUDY    71  49  45 CALM      30.02F
6HR MIN TEMP:  53; 6HR MAX TEMP:  72;

SHERIDAN       MOSUNNY   74  48  39 CALM      29.97F
6HR MIN TEMP:  50; 6HR MAX TEMP:  74;

BUFFALO        PTSUNNY   73  49  42 NW9       30.01F
6HR MIN TEMP:  53; 6HR MAX TEMP:  73;

GILLETTE       MOSUNNY   76  49  38 S14       29.99F
6HR MIN TEMP:  56; 6HR MAX TEMP:  76;

HULETT         MOCLDY    73  45  35 MISG      30.02
NEWCASTLE      FAIR      70  41  35 S12       30.05

$$
WYZ014>020-022>026-101>103-221900-
CENTRAL WYOMING

CITY           SKY/WX    TMP DP  RH WIND       PRES   REMARKS
BIG PINEY      PTSUNNY   57  48  72 SE7       30.28F
6HR MIN TEMP:  47; 6HR MAX TEMP:  58; 6HR PCP:  0.01;

PINEDALE       LGT RAIN  52  48  87 N3        30.29F
DUBOIS         FAIR      59  43  55 NW16      30.21F
LANDER         CLOUDY    66  49  54 N3        30.12F
6HR MIN TEMP:  50; 6HR MAX TEMP:  66; 6HR PCP:  0.01;

RIVERTON       CLOUDY    64  45  49 SW12      30.13S
6HR MIN TEMP:  52; 6HR MAX TEMP:  67;

CASPER         CLOUDY    68  48  48 SW24G32   30.12R
6HR MIN TEMP:  50; 6HR MAX TEMP:  72;

DOUGLAS        MOSUNNY   75  46  35 CALM      30.09F
6HR MIN TEMP:  48; 6HR MAX TEMP:  77;


$$
WYZ021-027>030-104>119-221900-
SOUTHERN WYOMING

CITY           SKY/WX    TMP DP  RH WIND       PRES   REMARKS
EVANSTON       MOSUNNY   61  45  55 SW16      30.28F
6HR MIN TEMP:  46; 6HR MAX TEMP:  62;

KEMMERER       CLOUDY    57  48  72 W9        30.30S
FORT BRIDGER   MOCLDY    63  49  61 W15G21    30.31S
ROCK SPRINGS   CLOUDY    56  50  80 CALM      30.28F
6HR MIN TEMP:  47; 6HR MAX TEMP:  56; 6HR PCP: TRACE;

DIXON          FAIR      59  52  78 SW9       30.31F
RAWLINS        CLOUDY    59  45  59 SW18      30.28R
6HR MIN TEMP:  44; 6HR MAX TEMP:  62; 6HR PCP: TRACE;

SARATOGA       CLOUDY    54  50  87 SE9       30.29F
LARAMIE        HVY RAIN  50  47  89 W21G45    30.31R FOG
6HR MIN TEMP:  49; 6HR MAX TEMP:  68; 6HR PCP: TRACE;

CHEYENNE       MOSUNNY   71  50  47 S15       30.19F
6HR MIN TEMP:  50; 6HR MAX TEMP:  72; 6HR PCP:  0.04;

TORRINGTON     PTSUNNY   68  51  54 SE12      30.08F
6HR MIN TEMP:  53; 6HR MAX TEMP:  71;

PINE BLUFFS    FAIR      70  52  52 S10       30.17F

$$



USA.gov is the U.S. government's official web portal to all federal, state and local government web resources and services.